[[{"header":{"parameterUnit":"m.s-1","parameterCategory":1,"la1":30.2991,"la2":30.254,"lo1":-89.0895,"lo2":-89.0444,"dy":0.0017,"dx":0.0017,"nx":28,"ny":28,"refTime":"2024-05-24T09:00:00:Z","depth":0,"parameterNumber":2,"parameterNumberName":"U-component_of_WINDS"},"data":[0,0,0,0,0,0,0,0,0,0,0,0,0,0,0,0,0,0,0,0,0,0,0,0,0,0,0,0,0,0,0,0,0,0,0,0,0,0,0,0,0,0,0,0,0,0,0,0,0,0,0,0,0,0,0,0,0,0,0.4898,0.4899,0,0.4964,0.4964,0.4965,0.4956,0.4955,0.4954,0.4953,0.5026,0.5029,0.5032,0,0,0,0,0,0,0,0,0,0,0,0,0,0.4768,0.477,0.4898,0.4899,0.4899,0.4963,0.4964,0.4965,0.4956,0.4955,0.4953,0.4952,0.5025,0.5029,0.5032,0,0,0,0,0,0,0,0,0,0,0,0,0,0.4828,0.4771,0.4898,0.4902,0.4903,0.4963,0.4964,0.4965,0.4956,0.4955,0.4953,0.4951,0.5024,0.5028,0.5033,0.5094,0,0,0.5046,0.5048,0,0,0,0,0,0,0,0,0.4825,0.4833,0.4901,0.4902,0.4903,0.495,0.4945,0.5009,0.4957,0.4937,0.4953,0.4951,0.5002,0.5009,0.5025,0.5097,0.51,0.5047,0.505,0.5051,0.5053,0,0,0,0,0,0,0,0.482,0.483,0.4924,0.4902,0.4904,0.4902,0.4909,0.4957,0.4978,0.4938,0.4938,0.4945,0.5003,0.502,0.5026,0.5101,0.5047,0.5051,0.5053,0.5055,0.5224,0.5226,0,0,0,0,0,0,0.4814,0.4827,0.4922,0.4926,0.4859,0.4906,0.4914,0.4937,0.4978,0.4982,0.4946,0.4944,0.5014,0.5021,0.5029,0.5101,0.5051,0.5056,0.5058,0.5222,0.5224,0.5226,0,0,0,0,0,0,0.4812,0.4823,0.4919,0.4876,0.4888,0.491,0.4936,0.4939,0.4956,0.4984,0.4988,0.496,0.5013,0.5023,0.5076,0.5103,0.5058,0.5062,0.522,0.5223,0.5225,0.5246,0,0,0,0,0,0,0.4808,0.4822,0.4845,0.4877,0.489,0.4965,0.4938,0.4941,0.4963,0.4961,0.4998,0.5003,0.5012,0.507,0.5081,0.5109,0.5065,0.5218,0.5221,0.5224,0.5243,0.5249,0.5254,0,0,0,0,0,0.4803,0.485,0.4846,0.4858,0.4919,0.4966,0.4975,0.4983,0.4966,0.4989,0.5006,0.5001,0.5098,0.5075,0.5088,0.5117,0.5216,0.522,0.5224,0.5241,0.5248,0.5254,0,0,0,0,0,0,0.4825,0.4855,0.485,0.4909,0.4935,0.4965,0.4995,0.4991,0.5024,0.5021,0.5031,0.504,0.5094,0.5111,0.5085,0.5177,0.5155,0.5162,0.5163,0.5171,0.5176,0.5171,0.5069,0,0,0,0,0,0.4835,0.4869,0.4895,0.4944,0.4957,0.4973,0.4994,0.4998,0.5026,0.5038,0.5059,0.5088,0.5124,0.5149,0.5184,0.5246,0.5253,0.5272,0.5277,0.5282,0.5288,0.5319,0.5327,0.5239,0.5239,0.5239,0,0,0.486,0.488,0.4902,0.4949,0.4969,0.5005,0.4983,0.5023,0.5049,0.5044,0.5095,0.5112,0.5145,0.5201,0.5228,0.5218,0.5313,0.5287,0.529,0.5294,0.5324,0.5332,0.5339,0.5242,0.5242,0.5241,0,0,0.4921,0.4941,0.4982,0.5002,0.5032,0.5042,0.5051,0.5081,0.5091,0.5142,0.5138,0.517,0.5234,0.5256,0.5276,0.5342,0.5338,0.5354,0.5383,0.5413,0.542,0.5426,0.5448,0.5456,0.5359,0.5359,0.5359,0,0.4948,0.5,0.5005,0.5043,0.5063,0.5057,0.5099,0.5119,0.516,0.5174,0.5162,0.5239,0.5261,0.5321,0.5337,0.5354,0.5365,0.535,0.5418,0.5425,0.543,0.5451,0.5459,0.5361,0.5361,0.536,0.536,0,0.503,0.5066,0.5096,0.5132,0.5155,0.5196,0.5207,0.5231,0.5231,0.5243,0.5293,0.5319,0.5358,0.5372,0.5376,0.5433,0.5425,0.5416,0.5394,0.544,0.546,0.5468,0.5363,0.5362,0.5362,0.5362,0,0,0.5109,0.5143,0.5154,0.5169,0.52,0.5229,0.5268,0.5303,0.5322,0.535,0.5383,0.5435,0.5425,0.5447,0.5452,0.5479,0.5526,0.5466,0.5467,0.5475,0.5589,0.5595,0.5605,0.5524,0.5526,0.5527,0.5586,0,0.5172,0.5239,0.5243,0.5304,0.5336,0.5329,0.5363,0.5386,0.5397,0.5427,0.544,0.5476,0.5461,0.5474,0.55,0.5515,0.5549,0.5511,0.5555,0.5556,0.5546,0.5615,0.5623,0.5678,0.5594,0.5595,0.5596,0,0.5255,0.5281,0.5345,0.5367,0.5381,0.5412,0.5442,0.5471,0.5496,0.5502,0.5525,0.5525,0.5566,0.5542,0.5597,0.5571,0.5589,0.5599,0.5601,0.5606,0.5579,0.562,0.5695,0.5703,0.5609,0.5608,0.5607,0,0.5303,0.5355,0.5399,0.5412,0.5441,0.5461,0.5475,0.5498,0.5518,0.5546,0.5558,0.5592,0.561,0.5636,0.5645,0.5627,0.5699,0.5677,0.5705,0.5705,0.5721,0.5719,0.5799,0.5734,0.5734,0.5733,0.5733,0,0.5373,0.5412,0.542,0.5447,0.549,0.5494,0.5537,0.5549,0.5569,0.5598,0.5596,0.5623,0.5634,0.5664,0.5671,0.5715,0.5724,0.573,0.5731,0.5729,0.5728,0.5741,0.5737,0.5736,0.5735,0.5735,0.5734,0,0.5435,0.5442,0.5489,0.551,0.5517,0.5547,0.5566,0.5592,0.5601,0.5638,0.5647,0.5662,0.5697,0.5708,0.5751,0.5755,0.5806,0.5805,0.5796,0.5796,0.5823,0.582,0.5913,0.5924,0.5853,0.5854,0.5854,0,0.5478,0.5507,0.553,0.5548,0.5561,0.5591,0.561,0.5615,0.5635,0.5664,0.5686,0.5719,0.5746,0.5801,0.5817,0.5849,0.5848,0.5878,0.5853,0.5849,0.5846,0.5844,0.5846,0.5883,0.5884,0.5884,0.5885,0,0.5554,0.5555,0.5582,0.5608,0.563,0.5652,0.5674,0.5689,0.5697,0.572,0.5753,0.5773,0.5815,0.5847,0.5879,0.5894,0.5891,0.5892,0.59,0.5898,0.5891,0.5894,0.5808,0.589,0.589,0.5889,0.5889,0.5889,0.5607,0.5631,0.565,0.5679,0.5694,0.5713,0.5737,0.5748,0.5775,0.5807,0.5809,0.5844,0.5867,0.5908,0.5924,0.5953,0.5944,0.5957,0.5959,0.5962,0.5963,0.5887,0.5959,0.5959,0.5959,0.5959,0.5958,0,0.5681,0.5692,0.5718,0.5746,0.5768,0.576,0.5782,0.5802,0.5832,0.5852,0.5877,0.5914,0.5945,0.5962,0.5993,0.6012,0.6011,0.602,0.6018,0.6021,0.597,0.5959,0.602,0.602,0.602,0.602,0.602,0.602,0.5722,0.5761,0.5764,0.5811,0.5822,0.5854,0.5868,0.5885,0.59,0.5941,0.5965,0.5975,0.5993,0.6025,0.6052,0.6056,0.6068,0.6077,0.608,0.6032,0.6025,0.6019,0.6009,0.608,0.608,0.6129,0.613,0.613]},{"header":{"parameterUnit":"m.s-1","parameterCategory":1,"la1":30.2991,"la2":30.254,"lo1":-89.0895,"lo2":-89.0444,"dy":0.0017,"dx":0.0017,"nx":28,"ny":28,"refTime":"2024-05-24T09:00:00:Z","depth":0,"parameterNumber":3,"parameterNumberName":"V-component_of_WINDS"},"data":[0,0,0,0,0,0,0,0,0,0,0,0,0,0,0,0,0,0,0,0,0,0,0,0,0,0,0,0,0,0,0,0,0,0,0,0,0,0,0,0,0,0,0,0,0,0,0,0,0,0,0,0,0,0,0,0,0,0,5.0211,5.021,0,5.0196,5.0196,5.0195,5.0096,5.0094,5.0092,5.0089,5.0075,5.0077,5.0078,0,0,0,0,0,0,0,0,0,0,0,0,0,5.0153,5.0155,5.0211,5.021,5.021,5.0196,5.0196,5.0195,5.0097,5.0094,5.0091,5.0088,5.0074,5.0076,5.0079,0,0,0,0,0,0,0,0,0,0,0,0,0,5.0162,5.0155,5.0211,5.0159,5.0155,5.0196,5.0196,5.0195,5.0097,5.0094,5.009,5.0087,5.0073,5.0076,5.0079,5.0169,0,0,5.0087,5.0089,0,0,0,0,0,0,0,0,5.0162,5.0164,5.0167,5.0163,5.0158,5.0144,5.017,5.0186,5.0098,5.0119,5.0089,5.0085,5.0101,5.0101,5.0106,5.0168,5.0167,5.0088,5.0089,5.0091,5.0091,0,0,0,0,0,0,0,5.0161,5.0164,5.0205,5.0167,5.0162,5.0137,5.0134,5.0172,5.0131,5.0117,5.011,5.0109,5.0098,5.0104,5.0105,5.0167,5.0088,5.009,5.0092,5.0093,5.03,5.0303,0,0,0,0,0,0,5.0168,5.0165,5.0205,5.0204,5.0151,5.0141,5.0138,5.0152,5.013,5.0123,5.0112,5.0105,5.0101,5.0102,5.0104,5.0207,5.0091,5.0093,5.0095,5.0296,5.03,5.0305,0,0,0,0,0,0,5.0167,5.0172,5.0206,5.0182,5.0185,5.0146,5.0163,5.0154,5.016,5.0126,5.0118,5.0127,5.0098,5.01,5.0153,5.0205,5.0094,5.0097,5.0291,5.0297,5.0303,5.0413,0,0,0,0,0,0,5.0166,5.0173,5.0207,5.0184,5.0186,5.0255,5.0166,5.0156,5.0165,5.0155,5.0138,5.0131,5.0095,5.0149,5.0156,5.0207,5.0099,5.0287,5.0294,5.0301,5.0405,5.0422,5.0437,0,0,0,0,0,5.0164,5.0239,5.0209,5.0214,5.0228,5.0258,5.026,5.0217,5.017,5.0203,5.0181,5.0132,5.0198,5.0155,5.0162,5.0215,5.0283,5.0292,5.03,5.0397,5.0419,5.0436,0,0,0,0,0,0,5.027,5.0235,5.0201,5.0271,5.0268,5.0242,5.0283,5.0241,5.0252,5.0242,5.0188,5.0185,5.0245,5.0235,5.0188,5.0299,5.0232,5.0242,5.0304,5.0324,5.0339,5.034,5.0101,0,0,0,0,0,5.0301,5.0328,5.0297,5.0361,5.0361,5.0323,5.0334,5.0301,5.0296,5.0295,5.0277,5.0274,5.0293,5.0308,5.0325,5.0403,5.0397,5.0442,5.0458,5.0471,5.0481,5.052,5.0539,5.0333,5.0333,5.0333,0,0,5.0366,5.035,5.0371,5.0382,5.0376,5.0405,5.0322,5.0357,5.0378,5.03,5.0348,5.0335,5.0328,5.0393,5.0421,5.0387,5.0536,5.0482,5.0493,5.0495,5.0531,5.0551,5.0568,5.0339,5.0338,5.0337,0,0,5.0499,5.0491,5.0543,5.0538,5.0529,5.0503,5.0516,5.0495,5.0483,5.053,5.0472,5.0496,5.0532,5.0529,5.0532,5.0663,5.0618,5.067,5.0754,5.0793,5.0809,5.0823,5.0869,5.0886,5.0679,5.068,5.068,0,5.0581,5.0623,5.0575,5.0613,5.0619,5.0549,5.0601,5.0599,5.0597,5.0602,5.0563,5.0606,5.0597,5.066,5.0692,5.0697,5.0709,5.0672,5.081,5.0824,5.0837,5.088,5.0897,5.0686,5.0685,5.0685,5.0684,0,5.0724,5.0753,5.0796,5.0795,5.0806,5.0851,5.0809,5.0826,5.0792,5.077,5.0818,5.0804,5.0816,5.0829,5.0796,5.0887,5.0866,5.082,5.0751,5.0863,5.0903,5.0919,5.0695,5.0693,5.0691,5.0689,0,0,5.0924,5.0894,5.0911,5.0908,5.0893,5.0915,5.0957,5.0968,5.0983,5.0983,5.1016,5.1048,5.1004,5.1008,5.0975,5.1009,5.1112,5.0958,5.0957,5.0987,5.1211,5.1245,5.1265,5.1082,5.1085,5.1088,5.1211,0,5.1051,5.1119,5.1077,5.1152,5.1178,5.1111,5.1147,5.1142,5.1122,5.1141,5.1118,5.1141,5.1083,5.1084,5.1116,5.1093,5.1157,5.1084,5.1112,5.1114,5.1116,5.1286,5.1323,5.144,5.1226,5.1229,5.1231,0,5.1209,5.1215,5.1293,5.1271,5.128,5.1313,5.1319,5.1338,5.133,5.1313,5.1317,5.1275,5.1313,5.1246,5.1298,5.125,5.1259,5.125,5.1253,5.1254,5.1179,5.1291,5.1477,5.1494,5.1255,5.1253,5.1251,0,5.1345,5.1373,5.1423,5.1423,5.1399,5.1424,5.1415,5.1404,5.1413,5.1418,5.1423,5.1434,5.1439,5.1448,5.1409,5.1364,5.1467,5.1396,5.1453,5.1455,5.1478,5.1477,5.1667,5.1485,5.1485,5.1484,5.1484,0,5.1492,5.1542,5.1484,5.1515,5.1568,5.1518,5.1573,5.1557,5.1547,5.1573,5.1516,5.1542,5.149,5.151,5.148,5.1528,5.1531,5.1518,5.1509,5.1523,5.1524,5.1528,5.1518,5.1489,5.1488,5.1487,5.1486,0,5.1654,5.1617,5.1667,5.1639,5.1634,5.1674,5.1651,5.1678,5.1653,5.1687,5.1692,5.1654,5.1675,5.1637,5.1654,5.1634,5.17,5.1679,5.1703,5.1696,5.1755,5.175,5.1954,5.1978,5.1781,5.1783,5.1785,0,5.1749,5.1786,5.1762,5.1775,5.1769,5.1791,5.1799,5.1752,5.1763,5.1756,5.1784,5.18,5.181,5.1847,5.1821,5.1833,5.1812,5.1882,5.1813,5.1825,5.1812,5.181,5.1813,5.1896,5.1899,5.1901,5.1902,0,5.1922,5.1902,5.1916,5.1923,5.1935,5.1939,5.1939,5.1953,5.1902,5.1918,5.1938,5.1946,5.1962,5.1979,5.1984,5.1975,5.1931,5.1924,5.1938,5.1952,5.1964,5.1958,5.1741,5.192,5.1918,5.1917,5.1916,5.1915,5.2053,5.2082,5.2069,5.2086,5.2081,5.2082,5.2105,5.2083,5.2099,5.2108,5.2079,5.2106,5.2096,5.2099,5.2095,5.2115,5.2084,5.2104,5.2109,5.2115,5.2124,5.1961,5.2116,5.2116,5.2115,5.2115,5.2114,0,5.2222,5.221,5.2226,5.2227,5.2241,5.2197,5.2194,5.2209,5.2233,5.2227,5.2238,5.2261,5.2277,5.2252,5.2263,5.2284,5.2264,5.2289,5.2286,5.2285,5.2152,5.2138,5.2305,5.2305,5.2305,5.2305,5.2305,5.2305,5.2311,5.2357,5.2336,5.2378,5.2366,5.2391,5.2393,5.2394,5.2389,5.2417,5.2429,5.2412,5.2399,5.2409,5.2421,5.2413,5.242,5.2452,5.2437,5.2313,5.2294,5.2277,5.2264,5.2454,5.2454,5.2568,5.257,5.257]}]]